This demonstration page uses our WeatherBlox Daily Observations layout. Learn more.

Left ArrowRight Arrow

Hourly Observations for October 4, 2020

Temp ( °F °C ) Dew Point ( °F °C ) Humidity (%) Winds ( mph kmh ) Pressure ( in mb ) Visibility ( mi km ) Precip ( " mm )
12:15 am 00:15 Clear 44 6.4 37 2.6 77 77 S 3 6 30.25 1024 10 16 N/A
12:35 am 00:35 Clear 45 7 37 2.9 75 75 S 6 9 30.25 1024 10 16 N/A
12:55 am 00:55 Clear 44 6.8 37 3 77 77 S 7 11 30.26 1025 10 16 N/A
1:15 am 01:15 Clear 45 7 37 2.8 75 75 S 7 11 30.25 1024 10 16 N/A
1:35 am 01:35 Partly Cloudy 44 6.7 37 3 78 78 SSW 6 9 30.25 1024 10 16 N/A
1:55 am 01:55 Mostly Cloudy 44 6.7 38 3.1 78 78 SSW 5 7 30.25 1024 10 16 N/A
2:15 am 02:15 Mostly Cloudy 44 6.7 38 3.5 80 80 SSW 6 9 30.27 1025 10 16 N/A
2:35 am 02:35 Mostly Cloudy 45 7 38 3.5 79 79 S 5 7 30.27 1025 10 16 N/A
2:55 am 02:55 Partly Cloudy 42 5.3 37 2.6 83 83 SSW 3 6 30.28 1025 10 16 N/A
3:15 am 03:15 Partly Cloudy 41 5 37 2.6 85 85 S 3 6 30.28 1025 10 16 N/A
3:35 am 03:35 Clear 41 4.8 37 2.5 85 85 S 3 6 30.28 1025 10 16 N/A
3:55 am 03:55 Partly Cloudy 40 4.6 36 2.4 86 86 SSW 3 6 30.28 1025 10 16 N/A
4:15 am 04:15 Clear 40 4.4 36 2.1 85 85 N N/A 30.28 1026 10 16 N/A
4:35 am 04:35 Clear 40 4.2 36 2.1 86 86 S 5 7 30.29 1026 10 16 N/A
4:55 am 04:55 Clear 40 4.3 36 2.4 88 88 S 5 7 30.28 1026 10 16 N/A
5:15 am 05:15 Clear 40 4.3 37 2.7 89 89 S 3 6 30.28 1026 10 16 N/A
5:35 am 05:35 Clear 39 3.9 36 2.2 89 89 S 3 6 30.28 1025 10 16 N/A
5:55 am 05:55 Clear 38 3.5 36 2.1 91 91 SSE 5 7 30.29 1026 10 16 N/A
6:15 am 06:15 Clear 37 2.5 34 1 90 90 N N/A 30.30 1026 10 16 N/A
6:35 am 06:35 Clear 35 1.8 33 0.6 92 92 SSE 6 9 30.32 1027 10 16 N/A
6:55 am 06:55 Clear 38 3.2 36 2 92 92 SSE 6 9 30.31 1026 10 16 N/A
7:15 am 07:15 Clear 37 3 35 1.8 92 92 SSE 5 7 30.31 1026 10 16 N/A
7:35 am 07:35 Clear 38 3.4 36 2.1 91 91 S 5 7 30.30 1026 10 16 N/A
7:55 am 07:55 Sunny 39 4.1 37 2.7 91 91 S 5 7 30.30 1026 10 16 N/A
8:15 am 08:15 Sunny 40 4.2 37 2.7 90 90 SSE 6 9 30.30 1026 10 16 N/A
8:35 am 08:35 Sunny 43 6.2 40 4.3 88 88 S 7 11 30.29 1026 10 16 N/A
8:55 am 08:55 Sunny 46 7.6 41 5 84 84 S 8 13 30.27 1025 10 16 N/A
9:15 am 09:15 Sunny 48 9 42 5.5 79 79 S 10 17 30.26 1025 10 16 N/A
9:35 am 09:35 Sunny 50 10.2 42 5.6 73 73 S 10 17 30.25 1024 10 16 N/A
9:55 am 09:55 Sunny 53 11.5 42 5.5 67 67 S 10 17 30.24 1024 10 16 N/A
10:15 am 10:15 Sunny 54 12.4 41 5.2 62 62 S 9 15 30.22 1023 10 16 N/A
10:35 am 10:35 Sunny 56 13.3 41 5 57 57 S 12 19 30.21 1023 10 16 N/A
10:55 am 10:55 Sunny 58 14.6 40 4.7 52 52 S 8 13 30.19 1022 10 16 N/A
11:15 am 11:15 Sunny 59 15.2 40 4.6 49 49 S 12 19 30.18 1022 10 16 N/A
11:35 am 11:35 Sunny 61 16.3 41 4.8 47 47 S 13 20 30.17 1022 10 16 N/A
11:55 am 11:55 Sunny 64 17.5 40 4.5 42 42 S 14 22 30.15 1021 10 16 N/A
12:15 pm 12:15 Sunny 65 18.3 40 4.2 39 39 S 12 19 30.13 1020 10 16 N/A
12:35 pm 12:35 Sunny 66 19 38 3.6 36 36 SSE 14 22 30.12 1020 10 16 N/A
12:55 pm 12:55 Sunny 67 19.6 38 3.5 35 35 S 16 26 30.11 1020 10 16 N/A
1:15 pm 13:15 Sunny 69 20.3 38 3.3 33 33 S 17 28 30.07 1018 10 16 N/A
1:35 pm 13:35 Sunny 69 20.7 38 3.3 32 32 SSE 15 24 30.07 1018 10 16 N/A
1:55 pm 13:55 Sunny 70 21.2 38 3.4 31 31 S 17 28 30.06 1018 10 16 N/A
2:15 pm 14:15 Sunny 71 21.6 38 3.6 31 31 S 17 28 30.04 1017 10 16 N/A
2:35 pm 14:35 Sunny 71 21.8 38 3.6 30 30 S 16 26 30.04 1017 10 16 N/A
2:55 pm 14:55 Sunny 72 22.1 39 3.7 30 30 S 22 35 30.02 1017 10 16 N/A
3:15 pm 15:15 Sunny 73 22.5 39 4 30 30 S 17 28 30.02 1016 10 16 N/A
3:35 pm 15:35 Sunny 73 22.8 38 3.6 29 29 S 18 30 30.00 1016 10 16 N/A
3:55 pm 15:55 Sunny 73 23 38 3.6 28 28 S 17 28 29.99 1016 10 16 N/A
4:15 pm 16:15 Sunny 73 23 39 4 29 29 SSE 17 28 29.98 1015 10 16 N/A
4:35 pm 16:35 Sunny 74 23.1 39 4 29 29 S 20 31 29.96 1015 10 16 N/A
4:55 pm 16:55 Sunny 74 23.3 39 4.1 29 29 SSE 18 30 29.96 1015 10 16 N/A
5:15 pm 17:15 Sunny 74 23.1 39 3.8 28 28 S 16 26 29.94 1014 10 16 N/A
5:35 pm 17:35 Sunny 73 23 39 3.8 29 29 SSE 18 30 29.93 1014 10 16 N/A
5:55 pm 17:55 Sunny 73 22.7 39 3.9 29 29 S 16 26 29.93 1013 10 16 N/A
6:15 pm 18:15 Sunny 72 22.2 39 3.8 30 30 SSE 16 26 29.92 1013 10 16 N/A
6:35 pm 18:35 Sunny 71 21.7 39 3.8 31 31 SSE 16 26 29.92 1013 10 16 N/A
6:55 pm 18:55 Sunny 69 20.7 39 3.8 33 33 SSE 12 19 29.93 1014 10 16 N/A
7:15 pm 19:15 Clear 67 19.6 39 3.7 35 35 SSE 10 17 29.94 1014 10 16 N/A
7:35 pm 19:35 Clear 66 18.8 38 3.6 37 37 SSE 10 17 29.95 1014 10 16 N/A
7:55 pm 19:55 Clear 64 17.8 39 3.7 39 39 SSE 13 20 29.96 1014 10 16 N/A
8:15 pm 20:15 Clear 63 17.1 39 4 42 42 SSE 12 19 29.96 1015 10 16 N/A
8:35 pm 20:35 Clear 62 16.7 40 4.2 44 44 SSE 12 19 29.97 1015 10 16 N/A
8:55 pm 20:55 Clear 62 16.5 40 4.5 45 45 SSE 12 19 29.97 1015 10 16 N/A
9:15 pm 21:15 Clear 61 16.2 40 4.6 46 46 SSE 12 19 29.97 1015 10 16 N/A
9:35 pm 21:35 Clear 61 16.3 40 4.5 46 46 SSE 14 22 29.97 1015 10 16 N/A
9:55 pm 21:55 Clear 62 16.4 40 4.5 45 45 SSE 14 22 29.97 1015 10 16 N/A
10:15 pm 22:15 Clear 61 16 40 4.5 47 47 SSE 13 20 29.97 1015 10 16 N/A
10:35 pm 22:35 Clear 60 15.7 40 4.5 48 48 S 13 20 29.97 1015 10 16 N/A
10:55 pm 22:55 Clear 60 15.5 40 4.7 49 49 S 14 22 29.97 1015 10 16 N/A
11:15 pm 23:15 Clear 59 15.1 41 5 51 51 S 14 22 29.98 1015 10 16 N/A
11:35 pm 23:35 Clear 59 15 41 5 51 51 S 14 22 29.97 1015 10 16 N/A
11:55 pm 23:55 Clear 58 14.5 41 5.2 54 54 S 10 17 29.97 1015 10 16 N/A

Powered by AerisWeather